Location: ?????
(31.7405°N, 35.1927°E)
Time: 05:04:17
(UTC+00:00)

NOSS 3-3 (C) - Pass Details

Date: 17 February 2020
Orbit: 836 x 1377 km, 63.4° (Epoch: 06 April)

Event Time Altitude Azimuth Distance (km) Brightness Sun altitude
Rises 03:44:23 0° 208° (SSW) 3,374 6.6 -8.2°
Reaches altitude 10° 03:46:45 10° 208° (SSW) 2,460 5.9 -7.7°
Maximum altitude 03:52:24 89° 294° (WNW) 892 3.9 -6.6°
Drops below altitude 10° 03:58:37 10° 29° (NNE) 2,699 6.6 -5.3°
Sets 04:01:20 0° 30° (NNE) 3,725 7.3 -4.7°
